Sedalia, MO

1:19 AM CDT on September 30, 2016 (GMT -0500)
Sedalia Memorial

Weather History for KDMO - February, 2014

Change the Weather History Date:

Thursday, February 20, 2014

  Actual Average Record
Temperature  
Mean Temperature 54 °F 38 °F  
Max Temperature 72 °F 47 °F 76 °F (2016)
Min Temperature 36 °F 28 °F -14 °F (1978)
Degree Days  
Heating Degree Days 11 27  
Month to date heating degree days 803 597  
Since 1 July heating degree days 3954 3412  
Cooling Degree Days 0 0  
Month to date cooling degree days 0 0  
Year to date cooling degree days 0 0  
Growing Degree Days 4 (Base 50)    
Moisture  
Dew Point 40 °F    
Average Humidity 68    
Maximum Humidity 86    
Minimum Humidity 49    
Precipitation  
Precipitation 0.00 in 0.07 in 3.40 in (1997)
Month to date precipitation 0.56 1.40  
Year to date precipitation 0.78 3.07  
Sea Level Pressure  
Sea Level Pressure 29.56 in    
Wind  
Wind Speed 18 mph (SW)    
Max Wind Speed 43 mph    
Max Gust Speed 61 mph    
Visibility 10 miles    
Events      
T = Trace of Precipitation, MM = Missing Value Source: NWS Daily Summary

Daily Weather History Graph

Daily Weather History Graph

Search for Another Location

Airport or City:

Trip Planner

Search our weather history database for the weather conditions in past years. The results will help you decide how hot, cold, wet, or windy it might be!

Date:

Astronomy

Feb. 20, 2014 Rise Set
Actual Time 6:57 AM CST 5:56 PM CST
Civil Twilight 6:30 AM CST 6:23 PM CST
Nautical Twilight 5:59 AM CST 6:54 PM CST
Astronomical Twilight 5:28 AM CST 7:24 PM CST
Moon 11:46 PM CST (2/20) 9:44 AM CST (2/20)
Length of Visible Light 11h 52m
Length of Day
10h 58m
Waning Gibbous, 70% of the Moon is Illuminated
Feb 20
Waning Gibbous
Feb 22
Last Quarter
Mar 1
New
Mar 8
First Quarter
Mar 16
Full

Hourly Weather History & Observations

Time (CST) Temp. Windchill Dew Point Humidity Pressure Visibility Wind Dir Wind Speed Gust Speed Precip Events Conditions
12:53 AM 54.0 °F - 42.1 °F 64% 29.58 in 10.0 mi South 18.4 mph 24.2 mph N/A   Mostly Cloudy
1:53 AM 55.0 °F - 45.0 °F 69% 29.54 in 10.0 mi SSE 16.1 mph - N/A   Mostly Cloudy
2:53 AM 55.9 °F - 48.0 °F 75% 29.51 in 10.0 mi South 12.7 mph - N/A   Overcast
3:53 AM 54.0 °F - 48.0 °F 80% 29.49 in 10.0 mi SSE 6.9 mph - N/A   Mostly Cloudy
4:53 AM 52.0 °F - 46.9 °F 83% 29.46 in 10.0 mi ESE 9.2 mph - N/A   Overcast
5:53 AM 53.1 °F - 48.0 °F 83% 29.43 in 10.0 mi SE 10.4 mph - N/A   Overcast
6:53 AM 57.9 °F - 53.1 °F 84% 29.41 in 10.0 mi SSE 12.7 mph - N/A   Overcast
7:53 AM 59.0 °F - 54.0 °F 83% 29.41 in 9.0 mi SSE 17.3 mph - N/A   Overcast
8:53 AM 62.1 °F - 55.9 °F 80% 29.37 in 10.0 mi South 21.9 mph 31.1 mph N/A   Mostly Cloudy
9:53 AM 64.0 °F - 55.9 °F 75% 29.31 in 10.0 mi South 21.9 mph 29.9 mph N/A   Overcast
10:53 AM 66.0 °F - 55.9 °F 70% 29.27 in 10.0 mi South 17.3 mph 24.2 mph N/A   Overcast
11:53 AM 72.0 °F - 52.0 °F 49% 29.24 in 10.0 mi SSW 35.7 mph 48.3 mph N/A   Partly Cloudy
12:53 PM 53.1 °F - 46.0 °F 77% 29.36 in 10.0 mi West 33.4 mph 42.6 mph N/A   Mostly Cloudy
1:21 PM 45.0 °F 35.1 °F 37.9 °F 76% 29.42 in 10.0 mi West 31.1 mph 41.4 mph N/A   Overcast
1:53 PM 42.1 °F 32.1 °F 35.1 °F 76% 29.48 in 10.0 mi West 25.3 mph 40.3 mph N/A   Overcast
2:21 PM 41.0 °F 31.1 °F 33.1 °F 73% 29.52 in 10.0 mi West 23.0 mph 34.5 mph N/A   Overcast
2:53 PM 41.0 °F 30.7 °F 33.1 °F 73% 29.58 in 10.0 mi West 25.3 mph 36.8 mph N/A   Overcast
3:53 PM 41.0 °F 30.2 °F 32.0 °F 70% 29.67 in 10.0 mi West 27.6 mph 43.7 mph N/A   Overcast
4:49 PM 41.0 °F 30.9 °F 32.0 °F 70% 29.72 in 10.0 mi West 24.2 mph 38.0 mph N/A   Overcast
4:53 PM 42.1 °F 33.1 °F 32.0 °F 67% 29.73 in 10.0 mi West 20.7 mph 38.0 mph N/A   Overcast
5:03 PM 41.0 °F 31.1 °F 32.0 °F 70% 29.72 in 10.0 mi West 23.0 mph 34.5 mph N/A   Overcast
5:53 PM 39.9 °F 30.8 °F 30.0 °F 68% 29.76 in 10.0 mi West 18.4 mph 27.6 mph N/A   Clear
6:53 PM 39.9 °F 33.4 °F 30.0 °F 68% 29.76 in 10.0 mi WSW 10.4 mph - N/A   Clear
7:53 PM 39.0 °F 31.8 °F 30.0 °F 70% 29.77 in 10.0 mi SW 11.5 mph - N/A   Clear
8:53 PM 37.9 °F 30.9 °F 28.9 °F 70% 29.77 in 10.0 mi WSW 10.4 mph - N/A   Clear
9:53 PM 39.0 °F 32.3 °F 27.0 °F 62% 29.77 in 10.0 mi West 10.4 mph - N/A   Clear
10:53 PM 37.9 °F 28.9 °F 26.1 °F 62% 29.78 in 10.0 mi West 16.1 mph - N/A   Clear
11:53 PM 37.0 °F 27.0 °F 21.0 °F 52% 29.77 in 10.0 mi West 18.4 mph 25.3 mph N/A   Clear